E1763 Weather Reports


Display with metric or nautical units.
time (UTC)temp
F
wind
direction
speed
MPH
gust
MPH
rain 1hr
in
rain 24hr
in
rain mn
in
humidity
%
barometer
mb
20260903063009 58 163 0.0 0.0 0.03 0.04 0.04 92 1009.7
20260903061507 58 113 0.0 0.0 0.02 0.03 0.03 91 1009.8
20260903060003 59 163 0.0 0.0 0.01 0.02 0.02 90 1010.0
20260903054503 59 178 0.0 0.0 0.01 0.03 0.02 88 1010.3
20260903053002 60 196 0.0 0.0 0.00 0.02 0.01 86 1010.4
20260903051502 61 188 0.0 1.0 0.00 0.02 0.01 82 1010.4
20260903050001 61 186 0.0 0.0 0.00 0.02 0.01 81 1010.4
20260903044602 61 180 0.0 0.0 0.00 0.02 0.01 81 1010.4
20260903043207 61 204 0.0 0.0 0.00 0.02 0.01 81 1010.3
20260903041606 61 202 0.0 0.0 0.00 0.02 0.01 83 1010.3
20260903034558 61 206 0.0 0.0 0.00 0.02 0.01 82 1010.1
20260903033059 62 204 0.0 0.0 0.00 0.02 0.01 82 1010.0
20260903031559 62 223 0.0 0.0 0.00 0.02 0.01 81 1010.0
20260903030057 62 195 0.0 0.0 0.00 0.02 0.01 81 1010.0
20260903024559 62 213 0.0 0.0 0.00 0.02 0.01 80 1010.1
20260903023056 62 259 0.0 1.0 0.00 0.02 0.01 79 1010.2
20260903021556 63 193 0.0 0.0 0.00 0.02 0.01 78 1010.2
20260903020054 63 215 0.0 0.0 0.00 0.02 0.01 77 1010.3
20260903014555 64 213 0.0 0.0 0.00 0.02 0.01 75 1010.4
20260903013105 64 214 0.0 0.0 0.00 0.02 0.01 73 1010.4
20260903011552 64 190 0.0 0.0 0.00 0.02 0.01 73 1010.3
20260903010053 65 200 0.0 0.0 0.00 0.02 0.01 72 1010.5
20260903004553 65 210 0.0 0.0 0.00 0.02 0.01 70 1010.6
20260903003055 66 196 0.0 0.0 0.00 0.02 0.01 69 1010.5
20260903001551 66 233 0.0 0.0 0.00 0.02 0.01 69 1010.4
20260903000050 66 215 0.0 0.0 0.00 0.02 0.01 68 1010.4
20260902234607 66 209 0.0 0.0 0.00 0.02 0.01 66 1010.5
20260902233049 68 202 0.0 0.0 0.00 0.02 0.01 63 1010.6
20260902231552 69 220 0.0 0.0 0.00 0.02 0.01 61 1010.6
20260902230048 70 238 0.0 0.0 0.00 0.02 0.01 63 1010.7
20260902224605 70 223 0.0 0.0 0.00 0.02 0.01 62 1010.8
20260902223143 70 224 0.0 0.0 0.00 0.02 0.01 61 1010.8
20260902221542 70 188 0.0 0.0 0.00 0.02 0.01 66 1011.1
20260902220046 70 215 0.0 0.0 0.00 0.02 0.01 67 1011.2
20260902214540 70 170 0.0 0.0 0.00 0.02 0.01 67 1011.3
20260902213040 70 219 0.0 0.0 0.00 0.02 0.01 67 1011.3
20260902211540 70 218 0.0 0.0 0.00 0.02 0.01 66 1011.2
20260902210037 69 213 0.0 0.0 0.00 0.02 0.01 68 1011.2
20260902204540 69 223 0.0 0.0 0.00 0.02 0.01 69 1011.2
20260902203037 69 186 0.0 0.0 0.00 0.02 0.01 70 1011.3
20260902201547 69 220 0.0 0.0 0.00 0.02 0.01 70 1011.3
20260902200050 69 246 0.0 0.0 0.00 0.02 0.01 72 1011.3
20260902194535 69 209 0.0 0.0 0.00 0.02 0.01 72 1011.4
20260902193035 69 250 0.0 0.0 0.00 0.02 0.01 71 1011.4
20260902191535 71 256 0.0 0.0 0.00 0.02 0.01 70 1011.4
20260902190045 67 200 0.0 0.0 0.00 0.02 0.01 76 1011.6
20260902184531 66 245 0.0 0.0 0.00 0.05 0.01 75 1011.7
20260902183023 65 248 0.0 0.0 0.00 0.05 0.01 79 1011.7
20260902181520 65 209 0.0 2.0 0.00 0.05 0.01 82 1011.7
20260902180018 65 238 0.0 0.0 0.00 0.05 0.01 83 1011.7
20260902174517 65 131 0.0 0.0 0.00 0.09 0.01 86 1011.6
20260902173012 62 221 0.0 0.0 0.00 0.09 0.01 91 1011.6
20260902171509 62 197 0.0 5.0 0.00 0.09 0.01 93 1011.2
20260902170008 60 231 0.0 0.0 0.00 0.09 0.01 93 1011.2
20260902164511 60 169 0.0 0.0 0.00 0.10 0.01 94 1011.2
20260902163005 60 189 0.0 0.0 0.00 0.10 0.01 95 1011.2
20260902161507 60 206 0.0 0.0 0.00 0.10 0.01 95 1011.1
20260902160001 60 180 0.0 0.0 0.00 0.10 0.01 95 1011.0
20260902154603 59 180 0.0 0.0 0.00 0.16 0.01 95 1010.8
20260902153057 59 180 0.0 0.0 0.00 0.16 0.01 95 1010.6
20260902151557 59 180 0.0 0.0 0.00 0.16 0.01 95 1010.5
20260902150053 58 176 0.0 0.0 0.00 0.16 0.01 95 1010.3
20260902144551 58 192 0.0 3.0 0.00 0.21 0.01 95 1010.3
20260902143050 57 167 0.0 0.0 0.00 0.21 0.01 94 1010.3
20260902141649 57 179 0.0 0.0 0.00 0.21 0.01 94 1010.2
20260902140049 58 212 0.0 0.0 0.00 0.21 0.01 94 1010.2
20260902134547 58 188 0.0 0.0 0.00 0.21 0.01 94 1010.0
20260902133047 58 188 0.0 0.0 0.00 0.21 0.01 93 1009.8
20260902131545 58 198 0.0 0.0 0.00 0.21 0.01 93 1009.6
20260902130044 58 215 0.0 0.0 0.00 0.21 0.01 92 1009.4
20260902124556 58 200 0.0 0.0 0.00 0.21 0.01 92 1009.3
20260902123045 58 101 0.0 0.0 0.00 0.21 0.01 92 1009.3
20260902121546 58 81 0.0 0.0 0.00 0.21 0.01 92 1009.0
20260902120041 58 68 0.0 0.0 0.00 0.21 0.01 92 1009.1
20260902114539 58 101 0.0 0.0 3.42 0.00 0.01 92 1009.3
20260902113040 58 69 0.0 0.0 0.00 0.21 0.01 91 1009.3
20260902111548 58 9 0.0 1.0 0.00 0.21 0.01 91 1009.2
20260902110038 57 78 0.0 0.0 0.00 0.21 0.01 91 1009.3
20260902104541 58 24 0.0 0.0 0.00 0.21 0.01 91 1009.4
20260902103034 58 109 0.0 0.0 0.00 0.21 0.01 92 1009.3
20260902101538 57 47 0.0 0.0 0.01 0.21 0.01 92 1009.3
20260902100033 57 107 0.0 0.0 0.01 0.21 0.01 93 1009.3
20260902094526 56 173 0.0 0.0 0.01 0.21 0.01 94 1009.7
20260902093025 56 53 0.0 0.0 0.01 0.21 0.01 94 1009.8
20260902091536 56 112 0.0 0.0 0.00 0.20 0.00 95 1010.0
20260902090022 56 35 0.0 0.0 0.00 0.20 0.00 95 1010.0
20260902084521 56 189 0.0 0.0 0.00 0.20 0.00 95 1010.1
20260902083020 55 170 0.0 0.0 0.00 0.20 0.00 95 1010.0
20260902081519 55 34 0.0 0.0 0.00 0.20 0.00 95 1010.1
20260902080017 55 44 0.0 0.0 0.00 0.20 0.00 95 1010.0
20260902074516 56 44 0.0 0.0 0.00 0.20 0.00 95 1010.0
20260902073018 56 64 0.0 0.0 0.00 0.20 0.00 95 1010.0
20260902071521 55 40 0.0 0.0 0.00 0.20 0.00 95 1010.0
20260902070016 56 39 0.0 0.0 0.00 0.20 0.00 95 1009.9
20260902064511 56 31 0.0 0.0 0.00 0.20 0.20 94 1010.0